Weather History for Clarksburg, WV

Change the Weather History Date:

Saturday, October 13, 2012

  Actual Average Record
Temperature  
Mean Temperature 50 °F -  
Max Temperature 69 °F 67 °F 87 °F (1928)
Min Temperature 30 °F 43 °F 24 °F (1988)
Degree Days  
Heating Degree Days 16    
Moisture  
Dew Point 37 °F    
Average Humidity 67    
Maximum Humidity 96    
Minimum Humidity 39    
Precipitation  
Precipitation 0.01 in - - ()
Sea Level Pressure  
Sea Level Pressure 30.30 in    
Wind  
Wind Speed 2 mph (SSW)    
Max Wind Speed 10 mph    
Max Gust Speed -    
Visibility 10 miles    
Events      
Averages and records for this station are not official NWS values.
T = Trace of Precipitation, MM = Missing Value Source: NWS Daily Summary

Daily Weather History Graph

Daily Weather History Graph

Search for Another Location

Airport:

Trip Planner

Search our weather history database for the weather conditions in past years. The results will help you decide how hot, cold, wet, or windy it might be!

Date:

Astronomy

Oct. 13, 2012 Rise Set
Actual Time 7:29 AM EDT 6:44 PM EDT
Civil Twilight 7:02 AM EDT 7:11 PM EDT
Nautical Twilight 6:31 AM EDT 7:42 PM EDT
Astronomical Twilight 6:00 AM EDT 8:13 PM EDT
Moon 5:17 AM EDT (10/13) 5:26 PM EDT (10/13)
Length of Visible Light 12h 08m
Length of Day
11h 15m
Waning Crescent, 5% of the Moon is Illuminated
Oct 13
Waning Crescent
Oct 15
New
Oct 21
First Quarter
Oct 29
Full
Nov 6
Last Quarter

Hourly Weather History & Observations

Time (EDT) Temp. Dew Point Humidity Pressure Visibility Wind Dir Wind Speed Gust Speed Precip Events Conditions
12:53 AM 36.0 °F 33.1 °F 89% 30.39 in 10.0 mi Calm Calm - N/A   Clear
1:53 AM 35.1 °F 32.0 °F 89% 30.39 in 10.0 mi Calm Calm - N/A   Clear
2:53 AM 34.0 °F 30.9 °F 89% 30.37 in 10.0 mi Calm Calm - N/A   Clear
3:53 AM 33.1 °F 30.0 °F 89% 30.37 in 10.0 mi Calm Calm - N/A   Clear
4:53 AM 33.1 °F 28.9 °F 85% 30.37 in 10.0 mi Calm Calm - N/A   Clear
5:53 AM 30.9 °F 28.0 °F 89% 30.37 in 9.0 mi Calm Calm - N/A   Clear
6:53 AM 32.0 °F 30.0 °F 92% 30.38 in 10.0 mi Calm Calm - N/A   Clear
7:53 AM 30.9 °F 30.0 °F 96% 30.38 in 8.0 mi Calm Calm - N/A   Clear
8:53 AM 37.0 °F 32.0 °F 82% 30.38 in 10.0 mi Calm Calm - 0.01 in   Clear
9:53 AM 46.0 °F 39.0 °F 76% 30.37 in 10.0 mi Calm Calm - N/A   Clear
10:53 AM 53.1 °F 39.9 °F 61% 30.36 in 10.0 mi WNW 3.5 mph - N/A   Clear
11:53 AM 61.0 °F 42.1 °F 50% 30.32 in 10.0 mi Calm Calm - N/A   Clear
12:53 PM 64.0 °F 43.0 °F 46% 30.28 in 10.0 mi SSW 8.1 mph - N/A   Clear
2:53 PM 68.0 °F 43.0 °F 40% 30.23 in 10.0 mi SW 8.1 mph - N/A   Clear
3:53 PM 69.1 °F 43.0 °F 39% 30.21 in 10.0 mi SSW 10.4 mph - N/A   Clear
4:53 PM 68.0 °F 43.0 °F 40% 30.18 in 10.0 mi SSW 8.1 mph - N/A   Clear
5:53 PM 66.9 °F 44.1 °F 44% 30.17 in 10.0 mi SSW 5.8 mph - N/A   Clear
6:53 PM 64.0 °F 41.0 °F 43% 30.18 in 10.0 mi SSW 3.5 mph - N/A   Mostly Cloudy
8:53 PM 61.0 °F 44.1 °F 54% 30.17 in 10.0 mi SSE 4.6 mph - N/A   Mostly Cloudy
10:53 PM 60.1 °F 42.1 °F 51% 30.14 in 10.0 mi Calm Calm - N/A   Partly Cloudy